Weather History for Fort Myers, FL

Change the Weather History Date:

Sunday, May 19, 2013

  Actual Average Record
Temperature  
Mean Temperature 82 °F 80 °F  
Max Temperature 92 °F 90 °F 96 °F (1944)
Min Temperature 71 °F 69 °F 58 °F (1945)
Degree Days  
Heating Degree Days 0 0  
Month to date heating degree days 0 0  
Since 1 July heating degree days 201 287  
Cooling Degree Days 17 15  
Month to date cooling degree days 212 247  
Year to date cooling degree days 958 877  
Growing Degree Days 29 (Base 50)    
Moisture  
Dew Point 68 °F    
Average Humidity 79    
Maximum Humidity 93    
Minimum Humidity 50    
Precipitation  
Precipitation 1.04 in 0.08 in 2.20 in (2002)
Month to date precipitation 3.20 1.19  
Year to date precipitation 9.55 10.34  
Sea Level Pressure  
Sea Level Pressure 30.05 in    
Wind  
Wind Speed 3 mph (ESE)    
Max Wind Speed 30 mph    
Max Gust Speed 49 mph    
Visibility 8 miles    
Events Rain , Thunderstorm    
T = Trace of Precipitation, MM = Missing Value Source: NWS Daily Summary

Daily Weather History Graph

Daily Weather History Graph

Search for Another Location

Airport:

Trip Planner

Search our weather history database for the weather conditions in past years. The results will help you decide how hot, cold, wet, or windy it might be!

Date:

Astronomy

May. 19, 2013 Rise Set
Actual Time 6:38 AM EDT 8:09 PM EDT
Civil Twilight 6:12 AM EDT 8:35 PM EDT
Nautical Twilight 5:42 AM EDT 9:05 PM EDT
Astronomical Twilight 5:11 AM EDT 9:37 PM EDT
Moon 2:43 PM EDT 2:27 AM EDT
Length of Visible Light 14h 22m
Length of Day
13h 31m
Waxing Gibbous, 65% of the Moon is Illuminated
May 19
Waxing Gibbous
May 25
Full
May 31
Last Quarter
Jun 8
New
Jun 16
First Quarter

Hourly Weather History & Observations

Time (EDT) Temp. Heat Index Dew Point Humidity Pressure Visibility Wind Dir Wind Speed Gust Speed Precip Events Conditions
12:53 AM 75.9 °F - 68.0 °F 76% 30.08 in 10.0 mi SSE 5.8 mph - N/A   Overcast
1:53 AM 75.0 °F - 68.0 °F 79% 30.06 in 10.0 mi SSE 3.5 mph - N/A   Clear
2:53 AM 73.9 °F - 68.0 °F 82% 30.05 in 10.0 mi Calm Calm - N/A   Clear
3:53 AM 73.0 °F - 68.0 °F 84% 30.04 in 10.0 mi South 3.5 mph - N/A   Clear
4:53 AM 73.0 °F - 69.1 °F 87% 30.04 in 10.0 mi SSE 3.5 mph - N/A   Clear
5:22 AM 73.4 °F - 69.8 °F 88% 30.04 in 10.0 mi SSE 4.6 mph - N/A   Mostly Cloudy
5:46 AM 73.4 °F - 68.0 °F 83% 30.04 in 10.0 mi Calm Calm - N/A   Partly Cloudy
5:53 AM 72.0 °F - 68.0 °F 87% 30.05 in 10.0 mi Calm Calm - N/A   Partly Cloudy
6:42 AM 73.4 °F - 69.8 °F 88% 30.06 in 10.0 mi Calm Calm - N/A   Mostly Cloudy
6:53 AM 72.0 °F - 68.0 °F 87% 30.07 in 10.0 mi Calm Calm - N/A   Scattered Clouds
7:00 AM 71.6 °F - 68.0 °F 88% 30.06 in 10.0 mi SE 3.5 mph - N/A   Mostly Cloudy
7:14 AM 73.4 °F - 69.8 °F 88% 30.06 in 10.0 mi SE 3.5 mph - N/A   Scattered Clouds
8:53 AM 79.0 °F - 69.1 °F 72% 30.09 in 10.0 mi SSE 6.9 mph - N/A   Clear
9:53 AM 82.0 °F 84.5 °F 66.9 °F 60% 30.10 in 10.0 mi SSE 8.1 mph - N/A   Clear
10:53 AM 84.9 °F 87.1 °F 66.0 °F 53% 30.10 in 10.0 mi Calm Calm - N/A   Mostly Cloudy
11:53 AM 86.0 °F 88.8 °F 66.9 °F 53% 30.09 in 10.0 mi ESE 5.8 mph - N/A   Scattered Clouds
12:53 PM 87.1 °F 89.2 °F 66.0 °F 49% 30.07 in 10.0 mi Variable 3.5 mph - N/A   Mostly Cloudy
1:53 PM 87.1 °F 89.9 °F 66.9 °F 51% 30.04 in 10.0 mi Variable 4.6 mph - N/A   Overcast
3:53 PM 86.0 °F 90.1 °F 69.1 °F 57% 30.00 in 10.0 mi West 4.6 mph - 0.00 in   Mostly Cloudy
4:53 PM 86.0 °F 89.4 °F 68.0 °F 55% 30.00 in 10.0 mi ENE 10.4 mph 17.3 mph N/A Thunderstorm Thunderstorm
5:11 PM 78.8 °F - 66.2 °F 65% 29.98 in 2.5 mi ESE 28.8 mph 49.5 mph 0.00 in Rain , Thunderstorm Light Thunderstorms and Rain
5:18 PM 73.4 °F - 66.2 °F 78% 29.98 in 0.8 mi SE 23.0 mph 49.5 mph 0.04 in Rain , Thunderstorm Heavy Thunderstorms and Rain
5:38 PM 73.4 °F - 66.2 °F 78% 30.02 in 0.5 mi Variable 3.5 mph - 0.84 in Rain , Thunderstorm Heavy Thunderstorms and Rain
5:41 PM 71.6 °F - 66.2 °F 83% 30.02 in 1.0 mi North 13.8 mph 17.3 mph 0.85 in Rain , Thunderstorm Thunderstorms and Rain
5:53 PM 71.1 °F - 68.0 °F 90% 30.03 in 1.2 mi North 4.6 mph - 1.00 in Rain , Thunderstorm Rain
5:57 PM 71.6 °F - 68.0 °F 88% 30.02 in 2.0 mi NNE 5.8 mph - 0.03 in Rain Rain
6:08 PM 71.6 °F - 69.8 °F 94% 30.01 in 8.0 mi North 6.9 mph - 0.04 in Rain Light Rain
6:53 PM 73.0 °F - 70.0 °F 90% 30.02 in 10.0 mi ESE 4.6 mph - 0.04 in   Mostly Cloudy
7:53 PM 73.9 °F - 71.1 °F 91% 30.03 in 10.0 mi Calm Calm - N/A   Clear
8:53 PM 75.0 °F - 71.1 °F 87% 30.05 in 10.0 mi Calm Calm - N/A   Mostly Cloudy
9:53 PM 73.9 °F - 71.1 °F 91% 30.05 in 10.0 mi Calm Calm - N/A   Partly Cloudy
10:53 PM 73.0 °F - 72.0 °F 96% 30.08 in 10.0 mi Calm Calm - N/A   Clear
11:53 PM 73.0 °F - 71.1 °F 93% 30.07 in 10.0 mi Calm Calm - N/A   Clear